| time (UTC) | temp F | wind direction | speed MPH | gust MPH | rain 1hr in | rain 24hr in | rain mn in | humidity % | barometer mb |
| 20260507074802 | 59 | 18 | 0.0 | 6.0 | 0.00 | 0.00 | 0.00 | 55 | 1015.5 |
| 20260507073303 | 56 | 25 | 2.0 | 6.0 | 0.00 | 0.00 | 0.00 | 59 | 1015.4 |
| 20260507071802 | 57 | 1 | 0.0 | 6.0 | 0.00 | 0.00 | 0.00 | 60 | 1015.4 |
| 20260507070303 | 56 | 20 | 2.0 | 6.0 | 0.00 | 0.00 | 0.00 | 60 | 1015.4 |
| 20260507064802 | 55 | 56 | 0.0 | 4.0 | 0.00 | 0.00 | 0.00 | 63 | 1015.3 |
| 20260507063303 | 54 | 2 | 0.0 | 4.0 | 0.00 | 0.00 | 0.00 | 64 | 1015.2 |
| 20260507061803 | 53 | 18 | 0.0 | 4.0 | 0.00 | 0.00 | 0.00 | 68 | 1015.2 |
| 20260507060302 | 51 | 29 | 2.0 | 4.0 | 0.00 | 0.00 | 0.00 | 71 | 1015.0 |
| 20260507054802 | 50 | 39 | 0.0 | 4.0 | 0.00 | 0.00 | 0.00 | 72 | 1014.8 |
| 20260507053303 | 50 | 15 | 0.0 | 2.0 | 0.00 | 0.00 | 0.00 | 73 | 1014.8 |
| 20260507051803 | 49 | 9 | 0.0 | 2.0 | 0.00 | 0.00 | 0.00 | 75 | 1014.7 |
| 20260507050303 | 48 | 8 | 0.0 | 2.0 | 0.00 | 0.00 | 0.00 | 77 | 1014.5 |
| 20260507044803 | 46 | 17 | 0.0 | 2.0 | 0.00 | 0.00 | 0.00 | 78 | 1014.4 |
| 20260507043303 | 46 | 30 | 0.0 | 2.0 | 0.00 | 0.00 | 0.00 | 78 | 1014.2 |
| 20260507041803 | 46 | 35 | 0.0 | 0.0 | 0.00 | 0.00 | 0.00 | 76 | 1014.1 |
| 20260507040303 | 46 | 35 | 0.0 | 2.0 | 0.00 | 0.00 | 0.00 | 75 | 1014.1 |
| 20260507034803 | 46 | 38 | 0.0 | 2.0 | 0.00 | 0.00 | 0.00 | 74 | 1014.0 |
| 20260507033303 | 46 | 28 | 0.0 | 4.0 | 0.00 | 0.00 | 0.00 | 73 | 1013.8 |
| 20260507031802 | 46 | 13 | 2.0 | 4.0 | 0.00 | 0.00 | 0.00 | 73 | 1013.9 |
| 20260507030303 | 46 | 68 | 4.0 | 4.0 | 0.00 | 0.00 | 0.00 | 73 | 1013.8 |
| 20260507024803 | 46 | 54 | 0.0 | 4.0 | 0.00 | 0.00 | 0.00 | 73 | 1013.7 |
| 20260507023303 | 47 | 56 | 0.0 | 4.0 | 0.00 | 0.00 | 0.00 | 73 | 1013.7 |
| 20260507021803 | 47 | 46 | 0.0 | 2.0 | 0.00 | 0.00 | 0.00 | 73 | 1013.5 |
| 20260507020303 | 47 | 54 | 0.0 | 4.0 | 0.00 | 0.00 | 0.00 | 72 | 1013.4 |
| 20260507014802 | 47 | 56 | 0.0 | 4.0 | 0.00 | 0.00 | 0.00 | 71 | 1013.4 |
| 20260507013302 | 48 | 69 | 0.0 | 6.0 | 0.00 | 0.00 | 0.00 | 71 | 1013.3 |
| 20260507011803 | 48 | 82 | 0.0 | 6.0 | 0.00 | 0.00 | 0.00 | 71 | 1013.3 |
| 20260507010303 | 49 | 14 | 2.0 | 4.0 | 0.00 | 0.00 | 0.00 | 70 | 1013.2 |
| 20260507004802 | 49 | 38 | 0.0 | 2.0 | 0.00 | 0.00 | 0.00 | 69 | 1013.2 |
| 20260507003303 | 49 | 56 | 2.0 | 4.0 | 0.00 | 0.00 | 0.00 | 68 | 1013.1 |
| 20260507001803 | 49 | 63 | 0.0 | 2.0 | 0.00 | 0.00 | 0.00 | 68 | 1013.0 |
| 20260507000303 | 50 | 64 | 0.0 | 0.0 | 0.00 | 0.00 | 0.00 | 67 | 1013.0 |
| 20260506234803 | 50 | 20 | 0.0 | 6.0 | 0.00 | 0.00 | 0.00 | 67 | 1012.9 |
| 20260506233302 | 50 | 66 | 0.0 | 6.0 | 0.00 | 0.00 | 0.00 | 66 | 1012.8 |
| 20260506231802 | 50 | 77 | 0.0 | 6.0 | 0.00 | 0.00 | 0.00 | 66 | 1012.7 |
| 20260506230302 | 50 | 77 | 0.0 | 8.0 | 0.00 | 0.00 | 0.00 | 66 | 1012.6 |
| 20260506224803 | 51 | 59 | 0.0 | 8.0 | 0.00 | 0.00 | 0.00 | 67 | 1012.5 |
| 20260506223302 | 51 | 35 | 0.0 | 4.0 | 0.00 | 0.00 | 0.00 | 67 | 1012.5 |
| 20260506221803 | 51 | 34 | 0.0 | 6.0 | 0.00 | 0.00 | 0.00 | 66 | 1012.5 |
| 20260506220303 | 51 | 35 | 0.0 | 6.0 | 0.00 | 0.00 | 0.00 | 68 | 1012.4 |
| 20260506214802 | 51 | 18 | 0.0 | 4.0 | 0.00 | 0.00 | 0.00 | 67 | 1012.3 |
| 20260506213302 | 52 | 23 | 0.0 | 0.0 | 0.00 | 0.00 | 0.00 | 65 | 1012.2 |
| 20260506211802 | 52 | 23 | 0.0 | 2.0 | 0.00 | 0.00 | 0.00 | 65 | 1012.1 |
| 20260506210302 | 52 | 24 | 2.0 | 4.0 | 0.00 | 0.00 | 0.00 | 64 | 1012.0 |
| 20260506204802 | 52 | 32 | 2.0 | 4.0 | 0.00 | 0.00 | 0.00 | 63 | 1012.1 |
| 20260506203303 | 52 | 34 | 0.0 | 6.0 | 0.00 | 0.00 | 0.00 | 63 | 1011.9 |
| 20260506201802 | 52 | 16 | 0.0 | 0.0 | 0.00 | 0.00 | 0.00 | 62 | 1011.7 |
| 20260506200302 | 52 | 19 | 0.0 | 2.0 | 0.00 | 0.00 | 0.00 | 60 | 1011.7 |
| 20260506194802 | 53 | 24 | 0.0 | 2.0 | 0.00 | 0.00 | 0.00 | 59 | 1011.6 |
| 20260506193302 | 52 | 25 | 0.0 | 4.0 | 0.00 | 0.00 | 0.00 | 58 | 1011.4 |
| 20260506191802 | 52 | 29 | 0.0 | 8.0 | 0.00 | 0.00 | 0.00 | 58 | 1011.3 |
| 20260506190303 | 52 | 60 | 6.0 | 10.0 | 0.00 | 0.00 | 0.00 | 57 | 1011.3 |
| 20260506184803 | 52 | 148 | 0.0 | 8.0 | 0.00 | 0.00 | 0.00 | 57 | 1011.0 |
| 20260506183303 | 52 | 149 | 2.0 | 8.0 | 0.00 | 0.00 | 0.00 | 57 | 1010.9 |
| 20260506181802 | 53 | 108 | 0.0 | 4.0 | 0.00 | 0.00 | 0.00 | 57 | 1010.8 |
| 20260506180303 | 52 | 71 | 0.0 | 4.0 | 0.00 | 0.00 | 0.00 | 57 | 1010.6 |
| 20260506174802 | 52 | 65 | 4.0 | 4.0 | 0.00 | 0.00 | 0.00 | 57 | 1010.3 |
| 20260506173303 | 53 | 94 | 0.0 | 4.0 | 0.00 | 0.00 | 0.00 | 57 | 1010.2 |
| 20260506171802 | 53 | 84 | 2.0 | 6.0 | 0.00 | 0.00 | 0.00 | 56 | 1010.1 |
| 20260506170304 | 53 | 141 | 0.0 | 6.0 | 0.00 | 0.00 | 0.00 | 56 | 1010.0 |
| 20260506164802 | 53 | 95 | 2.0 | 8.0 | 0.00 | 0.00 | 0.00 | 56 | 1010.1 |
| 20260506163303 | 52 | 95 | 4.0 | 10.0 | 0.00 | 0.00 | 0.00 | 55 | 1010.1 |
| 20260506161803 | 53 | 65 | 6.0 | 14.0 | 0.00 | 0.00 | 0.00 | 56 | 1010.2 |
| 20260506160302 | 53 | 91 | 4.0 | 12.0 | 0.00 | 0.00 | 0.00 | 55 | 1010.2 |
| 20260506154803 | 53 | 93 | 0.0 | 10.0 | 0.00 | 0.00 | 0.00 | 53 | 1010.1 |
| 20260506153302 | 53 | 117 | 0.0 | 16.0 | 0.00 | 0.00 | 0.00 | 53 | 1010.1 |
| 20260506151803 | 53 | 97 | 2.0 | 10.0 | 0.00 | 0.00 | 0.00 | 53 | 1010.0 |
| 20260506150304 | 52 | 76 | 4.0 | 12.0 | 0.00 | 0.00 | 0.00 | 55 | 1010.0 |
| 20260506144802 | 52 | 104 | 8.0 | 14.0 | 0.00 | 0.00 | 0.00 | 55 | 1010.0 |
| 20260506143303 | 52 | 127 | 0.0 | 17.0 | 0.00 | 0.00 | 0.00 | 56 | 1010.1 |
| 20260506141803 | 53 | 177 | 0.0 | 12.0 | 0.00 | 0.00 | 0.00 | 54 | 1009.9 |
| 20260506140303 | 53 | 60 | 6.0 | 12.0 | 0.00 | 0.00 | 0.00 | 53 | 1009.9 |
| 20260506134803 | 53 | 128 | 0.0 | 17.0 | 0.00 | 0.00 | 0.00 | 52 | 1009.9 |
| 20260506133303 | 53 | 57 | 14.0 | 23.0 | 0.00 | 0.00 | 0.00 | 51 | 1009.9 |
| 20260506131802 | 53 | 89 | 10.0 | 32.0 | 0.00 | 0.00 | 0.00 | 49 | 1009.7 |
| 20260506130302 | 54 | 42 | 6.0 | 17.0 | 0.00 | 0.00 | 0.00 | 48 | 1009.6 |
| 20260506124802 | 54 | 74 | 0.0 | 14.0 | 0.00 | 0.00 | 0.00 | 50 | 1009.5 |
| 20260506123303 | 54 | 67 | 10.0 | 21.0 | 0.00 | 0.00 | 0.00 | 53 | 1009.4 |
| 20260506121803 | 55 | 96 | 2.0 | 12.0 | 0.00 | 0.00 | 0.00 | 52 | 1009.3 |
| 20260506120303 | 55 | 46 | 0.0 | 10.0 | 0.00 | 0.00 | 0.00 | 53 | 1009.2 |
| 20260506114803 | 56 | 18 | 6.0 | 14.0 | 0.00 | 0.00 | 0.00 | 59 | 1009.1 |
| 20260506113303 | 57 | 4 | 4.0 | 12.0 | 0.00 | 0.00 | 0.00 | 57 | 1009.1 |
| 20260506111802 | 57 | 33 | 4.0 | 12.0 | 0.00 | 0.00 | 0.00 | 56 | 1009.1 |
| 20260506110302 | 58 | 20 | 2.0 | 16.0 | 0.00 | 0.00 | 0.00 | 45 | 1009.0 |
| 20260506104803 | 56 | 187 | 0.0 | 21.0 | 0.00 | 0.00 | 0.00 | 47 | 1009.2 |
| 20260506103303 | 56 | 99 | 4.0 | 12.0 | 0.00 | 0.00 | 0.00 | 48 | 1009.0 |
| 20260506101803 | 55 | 137 | 4.0 | 16.0 | 0.00 | 0.00 | 0.00 | 49 | 1009.0 |
| 20260506100302 | 55 | 115 | 2.0 | 21.0 | 0.00 | 0.00 | 0.00 | 51 | 1008.8 |
| 20260506094803 | 55 | 52 | 10.0 | 17.0 | 0.00 | 0.00 | 0.00 | 51 | 1008.9 |
| 20260506093302 | 54 | 79 | 19.0 | 27.0 | 0.00 | 0.00 | 0.00 | 56 | 1008.9 |
| 20260506091803 | 54 | 103 | 8.0 | 21.0 | 0.00 | 0.00 | 0.00 | 58 | 1008.8 |
| 20260506090302 | 53 | 86 | 2.0 | 19.0 | 0.00 | 0.00 | 0.00 | 62 | 1008.8 |
| 20260506084802 | 54 | 115 | 2.0 | 12.0 | 0.00 | 0.00 | 0.00 | 60 | 1008.6 |
| 20260506083303 | 53 | 135 | 0.0 | 12.0 | 0.00 | 0.00 | 0.00 | 61 | 1008.5 |
| 20260506081803 | 54 | 15 | 2.0 | 10.0 | 0.00 | 0.00 | 0.00 | 66 | 1008.3 |
| 20260506080303 | 54 | 23 | 6.0 | 10.0 | 0.00 | 0.00 | 0.00 | 68 | 1008.2 |